Desert Center, CA

6:40 PM PST on February 26, 2017 (GMT -0800)
Blythe

Weather History for KBLH - July, 2014

Change the Weather History Date:

Friday, July 11, 2014

  Actual Average Record
Temperature  
Mean Temperature 92 °F -  
Max Temperature 107 °F 106 °F 116 °F (1975)
Min Temperature 78 °F 79 °F 69 °F (1974)
Cooling Degree Days 27    
Growing Degree Days 42 (Base 50)    
Moisture  
Dew Point 43 °F    
Average Humidity 20    
Maximum Humidity 40    
Minimum Humidity 8    
Precipitation  
Precipitation 0.00 in - - ()
Sea Level Pressure  
Sea Level Pressure 29.79 in    
Wind  
Wind Speed 7 mph (SSW)    
Max Wind Speed 16 mph    
Max Gust Speed 23 mph    
Visibility 10 miles    
Events      
Averages and records for this station are not official NWS values.
T = Trace of Precipitation, MM = Missing Value Source: NWS Daily Summary

Daily Weather History Graph

Daily Weather History Graph

Search for Another Location

Airport or City:

Trip Planner

Search our weather history database for the weather conditions in past years. The results will help you decide how hot, cold, wet, or windy it might be!

Date:

Astronomy

Jul. 11, 2014 Rise Set
Actual Time 5:37 AM PDT 7:51 PM PDT
Civil Twilight 5:08 AM PDT 8:19 PM PDT
Nautical Twilight 4:33 AM PDT 8:54 PM PDT
Astronomical Twilight 3:56 AM PDT 9:32 PM PDT
Moon 7:08 PM PDT (7/11) 4:51 AM PDT (7/11)
Length of Visible Light 15h 10m
Length of Day
14h 13m
Waxing Gibbous, 99% of the Moon is Illuminated
Jul 11
Waxing Gibbous
Jul 12
Full
Jul 18
Last Quarter
Jul 26
New
Aug 3
First Quarter

Hourly Weather History & Observations

Time (PDT) Temp. Dew Point Humidity Pressure Visibility Wind Dir Wind Speed Gust Speed Precip Events Conditions
12:52 AM 88.0 °F 44.1 °F 22% 29.77 in 10.0 mi ESE 8.1 mph - N/A   Clear
1:52 AM 84.9 °F 48.0 °F 28% 29.76 in 10.0 mi SSE 3.5 mph - N/A   Clear
2:52 AM 82.0 °F 51.1 °F 34% 29.77 in 10.0 mi South 5.8 mph - N/A   Clear
3:52 AM 84.0 °F 50.0 °F 31% 29.78 in 10.0 mi WSW 4.6 mph - N/A   Clear
4:52 AM 78.1 °F 52.0 °F 40% 29.80 in 10.0 mi SE 5.8 mph - N/A   Clear
5:52 AM 78.1 °F 51.1 °F 39% 29.82 in 10.0 mi SE 5.8 mph - N/A   Clear
6:52 AM 80.1 °F 51.1 °F 36% 29.83 in 10.0 mi NNW 6.9 mph - N/A   Clear
7:52 AM 86.0 °F 51.1 °F 30% 29.84 in 10.0 mi NNW 3.5 mph - N/A   Clear
8:52 AM 91.0 °F 48.9 °F 23% 29.84 in 10.0 mi SW 3.5 mph - N/A   Clear
9:52 AM 95.0 °F 48.9 °F 21% 29.84 in 10.0 mi East 5.8 mph - N/A   Clear
10:52 AM 102.0 °F 35.1 °F 10% 29.83 in 10.0 mi NW 11.5 mph - N/A   Clear
11:52 AM 102.0 °F 35.1 °F 10% 29.82 in 10.0 mi Variable 4.6 mph - N/A   Clear
12:52 PM 102.9 °F 36.0 °F 10% 29.82 in 10.0 mi Variable 4.6 mph - N/A   Clear
1:52 PM 106.0 °F 36.0 °F 9% 29.80 in 10.0 mi SSW 16.1 mph 23.0 mph N/A   Clear
2:52 PM 106.0 °F 36.0 °F 9% 29.79 in 10.0 mi SSW 10.4 mph 21.9 mph N/A   Clear
3:52 PM 105.1 °F 34.0 °F 9% 29.76 in 10.0 mi WSW 12.7 mph - N/A   Clear
4:52 PM 104.0 °F 32.0 °F 8% 29.75 in 10.0 mi South 12.7 mph - N/A   Clear
5:52 PM 102.9 °F 36.0 °F 10% 29.74 in 10.0 mi SW 9.2 mph - N/A   Clear
6:52 PM 102.0 °F 37.9 °F 11% 29.74 in 10.0 mi WSW 11.5 mph - N/A   Clear
7:52 PM 100.0 °F 39.9 °F 13% 29.76 in 10.0 mi SW 10.4 mph - N/A   Clear
8:52 PM 97.0 °F 39.9 °F 14% 29.78 in 8.0 mi SW 13.8 mph - N/A   Clear
9:52 PM 93.9 °F 43.0 °F 17% 29.79 in 8.0 mi West 11.5 mph - N/A   Clear
10:52 PM 91.0 °F 44.1 °F 20% 29.79 in 9.0 mi WSW 9.2 mph - N/A   Clear
11:52 PM 86.0 °F 51.1 °F 30% 29.80 in 10.0 mi ENE 5.8 mph - N/A   Clear